sat.trackr.live / text

‹ back to catalog

BEIDOU-2 IGSO-3 (C08)

NORAD 37384 · 2011-013A

PAYLOAD ACTIVE UNKNOWN

§ Identity

Operator
Country
PRC
Launch date
2011-04-09
Launch site
XICLF
Launch vehicle
Mass (kg)
RCS (m²)
31.62

Purposes: comms, nav

External: N2YO · Heavens-Above · Gunter

§ Orbital elements

Epoch: 2026-09-19T19:40:48.084672Z

Period
1,435.82 min
Inclination
62.5493°
Eccentricity
0.0034975
Mean motion
1.00291145 rev/d
Perigee alt
35,633.7 km
Apogee alt
35,928.6 km
Semi-major
42,159.3 km
B*
0.0000e+0
RAAN
39.2692°
Arg perigee
183.8049°
Mean anomaly
177.1911°
Rev number
5,661

§ Raw data

BEIDOU-2 IGSO-3 (C08)1 37384U 11013A   26262.82000098 -.00000154  00000+0  00000+0 0  99952 37384  62.5493  39.2692 0034975 183.8049 177.1911  1.00291145 56616

JSON: /api/v1/satellites/37384 · /tle

For live sub-satellite position, see the globe view (requires WebGL).

§ Visibility from observer

Set your observer location to see the next 7 days of passes ≥ 10°. The values pass through the URL so the page stays shareable.

No JS? Fill the form by hand. The geolocation button needs JavaScript.